TimeCST,TemperatureF,Dew PointF,Humidity,Sea Level PressureIn,VisibilityMPH,Wind Direction,Wind SpeedMPH,Gust SpeedMPH,PrecipitationIn,Events,Conditions,WindDirDegrees,DateUTC
12:53 AM,35.1,27.0,72,29.90,10.0,South,4.6,-,N/A,,Clear,180,2012-11-21 06:53:00
1:53 AM,34.0,27.0,75,29.87,10.0,South,4.6,-,N/A,,Clear,180,2012-11-21 07:53:00
2:53 AM,34.0,28.0,79,29.88,10.0,SSW,4.6,-,N/A,,Clear,200,2012-11-21 08:53:00
3:53 AM,34.0,28.0,79,29.89,10.0,Calm,Calm,-,N/A,,Clear,0,2012-11-21 09:53:00
4:53 AM,30.9,28.0,89,29.89,10.0,Calm,Calm,-,N/A,,Clear,0,2012-11-21 10:53:00
5:53 AM,30.0,28.0,92,29.89,10.0,Calm,Calm,-,N/A,,Clear,0,2012-11-21 11:53:00
6:53 AM,28.9,27.0,92,29.90,10.0,Calm,Calm,-,N/A,,Clear,0,2012-11-21 12:53:00
7:53 AM,30.0,28.0,92,29.91,10.0,Calm,Calm,-,N/A,,Clear,0,2012-11-21 13:53:00
8:53 AM,33.1,30.0,89,29.90,10.0,Calm,Calm,-,N/A,,Clear,0,2012-11-21 14:53:00
9:53 AM,36.0,30.9,82,29.89,10.0,Calm,Calm,-,N/A,,Clear,0,2012-11-21 15:53:00
10:53 AM,39.9,32.0,73,29.89,10.0,Calm,Calm,-,N/A,,Clear,0,2012-11-21 16:53:00
11:53 AM,43.0,33.1,68,29.86,10.0,ESE,4.6,-,N/A,,Clear,110,2012-11-21 17:53:00
12:53 PM,45.0,34.0,65,29.84,10.0,East,3.5,-,N/A,,Clear,90,2012-11-21 18:53:00
1:53 PM,46.0,34.0,63,29.83,10.0,Calm,Calm,-,N/A,,Clear,0,2012-11-21 19:53:00
2:53 PM,46.9,35.1,63,29.80,10.0,Calm,Calm,-,N/A,,Clear,0,2012-11-21 20:53:00
3:53 PM,45.0,35.1,68,29.78,10.0,East,5.8,-,N/A,,Clear,90,2012-11-21 21:53:00
4:53 PM,43.0,34.0,71,29.75,10.0,East,5.8,-,N/A,,Clear,80,2012-11-21 22:53:00
5:53 PM,43.0,34.0,71,29.73,10.0,ESE,6.9,-,N/A,,Clear,110,2012-11-21 23:53:00
6:53 PM,44.1,34.0,68,29.70,10.0,SE,6.9,-,N/A,,Clear,130,2012-11-22 00:53:00
7:53 PM,43.0,34.0,71,29.67,10.0,ESE,6.9,-,N/A,,Clear,120,2012-11-22 01:53:00
8:53 PM,42.1,33.1,70,29.65,10.0,SE,5.8,-,N/A,,Clear,130,2012-11-22 02:53:00
9:53 PM,41.0,33.1,73,29.61,10.0,SE,4.6,-,N/A,,Clear,130,2012-11-22 03:53:00
10:53 PM,39.0,32.0,76,29.58,10.0,SE,4.6,-,N/A,,Clear,130,2012-11-22 04:53:00
11:53 PM,37.0,32.0,82,29.57,10.0,ESE,3.5,-,N/A,,Clear,120,2012-11-22 05:53:00